STARLINK-1365, 45590

Orbit data source: Space-Track

STARLINK-1365, 45590 is a payload satellite owned by SpaceX/Seattle (US) in LEO that was launched on Wed, 22 Apr 2020 UTC via an FALCON 9 launch vehicle from the Air Force Eastern Test Range (AFETR). Payload-class satellites include a variety of spacecraft equipped with specific instruments for various scientific and technological missions. These include communications satellites like Starlink; space stations such as the ISS; scientific satellites like the Hubble; Earth observation satellites from companies like Planet Labs, Umbra, and HawkEye 360; GPS; miniature CubeSats for education and research; and military/defense satellites.

Loading next visibility...
Identifier
45590, 2020-025BM
Orbit
LEO
Country
Flag of USUS
Related business
Manufacturer
SpaceX/Seattle
Mission
Partially operational Commercial Communications
Bus & Motor
STARLINK, Unknown motor
Mass
260 kg wet, ~248 kg dry
Launch date (UTC)
2020-04-22 (6 years ago)
Launch vehicle
FALCON 9
Launch site
Air Force Eastern Test Range (AFETR)
Object type
Payload
Rocket body
Debris
Shape & HBR
Box + 1 Pan, 10.1 m
Radar Cross Section
13.562 m², Large (>1 m²)

Expand to show TLE details & history
Last TLE update: 14 hours ago

TLE from 14 hours ago
0 STARLINK-1365
1 45590U 20025BM  26123.42324006  .00050039  00000-0  76682-3 0  9996
2 45590  53.0468 191.0388 0004872 328.7945  31.2774 15.53847401333775
Epoch: 2026-05-03T10:09Z
TLE epoch observation values (Epoch: 2026-05-03T10:09:27.941Z)
Latitude
-0.00006°
Longitude
177.34533°
Altitude
403.578 km
Speed
7.671 km/s
True Right ascension
12h 44m 09s
True Declination
0° 00' 00"
Sunlit
Object was in full shadow at epoch
Visualization orbit readout
Latitude
Unknown
Longitude
Unknown
Altitude
Unknown
Speed
Unknown
Apparent Right ascension
Unknown
Apparent Declination
Unknown
Sunlit
N/A
Visualization observer readout
Local Sidereal Time
07:28:19
Azimuth
Unknown
Elevation
Unknown
Doppler factor
Unknown
Orbital elements
Apogee altitude
409.088 km
Perigee altitude
402.477 km
Semi-major axis
6,783.92 km
Eccentricity
0.00049
Inclination
53.0468°
RAAN
191.0388°
Arg. of periapsis
328.7945°
True anomaly
31.3064°
Mean anomaly
31.2774°
Eccentric anomaly
31.2919°
Mean motion
3.88438 °/min
Orbital period
92.68 mins
BSTAR
0.00076682
Loading maneuver chart data...
Computing Atmospheric mass density...

Documentation

Showing up to 5 results
|